Location: Góry Miechowskie
(50.3599°N, 20.1803°E)
Time: 18:16:39
(UTC+00:00)

Meteor 1-11 - Pass Details

Date: 17 September 2024
Orbit: 841 x 884 km, 81.2° (Epoch: 08 October)

Event Time Altitude Azimuth Distance (km) Brightness Sun altitude
Rises 21:30:11 0° 351° (N) 3,490 8.4 -36.1°
Reaches altitude 10° 21:32:49 10° 359° (N) 2,552 7.4 -36.3°
Enters shadow 21:36:09 30° 25° (NNE) 1,555 5.8 -36.4°
